カタログに戻る

QIANFAN-128

運用中通信PO
NORAD 69074·PAYLOAD·🇨🇳 China

打ち上げ May 12, 2026 から Taiyuan Satellite Launch Center

Loading…

次のパス (今後24時間)

TLE

最新Source: Space-Track

元期: Sep 14, 2026, 21:52 UTC

1 69074U 26104B   26257.91177140  .00000124  00000-0  17310-3 0  9993
2 69074  88.9907 332.3481 0002175 113.9836 246.1543 13.51023121 17258

AllMySatでQIANFAN-128をリアルタイム追跡

Download on the App Store